Content
SEND FEEDBACK

Daily
Averages
Monthly
Summary
United States of America

NEW YORK - CENTRAL PARK, NEW YORK


Home > North America > United States > New York
Elevation: 4 meters     Latitude: 40 47N     Longitude: 073 58W

WEATHER
 
SELECT A DAY
Number of Records: 151,440;   Date Range: 11/1/95 - 10/29/14
 
SHARE

PRINT THIS DATA

[ ← Previous Day ]
WEATHER ALMANAC - 18 AUGUST, 2014
[ Next Day → ]
[ °F ]   °C
Weather ElementAverageHighLow
Temperature22.2 °C27 °C (2:49 pm)17.2 °C (6:51 am)
Dewpoint11.2 °C12.8 °C (6:51 pm)10 °C (12:51 am)
Humidity50.8 %70 % (6:51 am)36 % (8:51 pm)
Barometer1011.9 hPa1013.5 hPa (12:51 pm)1010.2 hPa (4:51 pm)
Wind Speed7.2 km/h16.7 km/h (4:51 pm)
Weather ElementAverage
Visibility16.1 km
Wind DirectionENE (65.8 °)

Weather ElementTotal
Precipitation---
Cooling Degree Days3.8 (Base 18.3)
Growing Degree Days12.1 (Base 10)
Averaged from 24 records on 18 August, 2014
WEATHER CONDITIONS BREAKOUT
WIND DIRECTION BREAKOUT
WEATHER BY HOUR - 18 AUGUST, 2014
[ °F ]   °C
Local TimeTemperatureDewpointHumidityBarometerVisibilityWind DirectionWind SpeedGust SpeedPrecipitationEventsConditions
12:51 AM20 °C11.1 °C56 %1012.5 hPa16.1 kmVariable7.4 km/hClear
1:51 AM19.4 °C11.1 °C59 %1012.2 hPa16.1 kmVariable7.4 km/hClear
2:51 AM19.4 °C10.6 °C57 %1012.2 hPa16.1 kmCalmClear
3:51 AM18.9 °C11.1 °C60 %1011.9 hPa16.1 kmNorthClear
4:51 AM18.3 °C11.1 °C63 %1011.9 hPa16.1 kmVariable5.6 km/hClear
5:51 AM17.2 °C11.1 °C67 %1012.2 hPa16.1 kmVariable9.3 km/hClear
6:51 AM17.2 °C11.7 °C70 %1012.9 hPa16.1 kmWNW (300°)9.3 km/hClear
7:51 AM18.3 °C11.7 °C65 %1013.2 hPa16.1 kmWNW (290°)13 km/hClear
8:51 AM19.4 °C11.7 °C61 %1013.5 hPa16.1 kmVariable5.6 km/hClear
9:51 AM21.1 °C12.2 °C57 %1013.2 hPa16.1 kmVariable7.4 km/hClear
10:51 AM22.8 °C11.7 °C49 %1012.9 hPa16.1 kmNorthClear
11:51 AM22.8 °C12.8 °C53 %1012.2 hPa16.1 kmWest (270°)11.1 km/hMostly Cloudy
12:51 PM25.6 °C12.2 °C43 %1011.5 hPa16.1 kmWest (280°)16.7 km/hMostly Cloudy
1:51 PM26.1 °C11.7 °C40 %1011.2 hPa16.1 kmVariable9.3 km/hPartly Cloudy
2:51 PM25.6 °C11.1 °C40 %1010.5 hPa16.1 kmNorthPartly Cloudy
3:51 PM26.7 °C11.7 °C39 %1010.2 hPa16.1 kmVariable5.6 km/hScattered Clouds
4:51 PM27 °C11 °C37 %1010.8 hPa16.1 kmCalmClear
5:51 PM26.7 °C10.6 °C36 %1010.2 hPa16.1 kmNW (310°)13 km/hClear
6:51 PM26.1 °C10 °C36 %1010.2 hPa16.1 kmVariable5.6 km/hClear
7:51 PM24.4 °C10.6 °C42 %1010.5 hPa16.1 kmNNE (20°)5.6 km/hClear
8:51 PM22.8 °C10.6 °C46 %1011.2 hPa16.1 kmNNE (30°)7.4 km/hClear
9:51 PM22.2 °C10 °C46 %1011.5 hPa16.1 kmCalmClear
10:51 PM22.2 °C10 °C46 %1011.5 hPa16.1 kmVariable7.4 km/hClear
11:51 PM21.7 °C11.1 °C51 %1011.9 hPa16.1 kmEast (80°)5.6 km/hClear
Hourly data recorded from KNYC, located 0 kilometers away from New York - Central Park, New York







STORIES FROM OUR PARTNERS